www.pogodaiklimat.ru

Погода и климат >> Архив погоды >> Россия >> Ямало-Ненецкий АО >> Сеяха


ПОГОДА в Сеяхе

  • Прогноз погоды в Сеяхе
  • Монитор погоды в Сеяхе

АРХИВ ПОГОДЫ в Сеяхе

Время (UTC), дата Ветер
(напр.,м/с)
 
Видим.   Явления Облачность Т
(С)
Тd
(С)
f
(%)
Тe
(С)
Тes
(С)
Комфортность P
(гПа)
Po
(гПа)
Тmin
(С)
Tmax
(С)
R
(мм)
R24
(мм)
S
(см)
00 17.04 С 3 20 км 3/0
[Ci fib]
-27.1 -30.2 75 -36 -36 опасность
обморожения
1024.8 1022.2
03 17.04 З 2 500 м туман ясно -25.4 -28.5 75 -32 -30 опасность
обморожения
1023.9 1021.3 -27.9 29
06 17.04 ЮЗ 3 20 км {туман} 9/0 270 м
[Cs]
-19.8 -22.2 81 -27 -23 1021.9 1019.4
09 17.04 Ю 3 20 км 10/0
[Cs]
-17.2 -19.5 82 -24 -22 1019.7 1017.2
12 17.04 Ю 6 20 км 9/0
[Cs]
-17.8 -20.0 83 -28 -28 1017.2 1014.8
15 17.04 Ю 6
{10}
20 км 9/0
[Ac trans Cs]
-19.6 -22.0 81 -30 -30 1015.0 1012.5 -17.2
18 17.04 Ю 8 4000 м мгла 9/0
[Ac trans Cs]
-20.3 -22.8 80 -33 -33 опасность
обморожения
1013.5 1011.0
21 17.04 Ю 7 20 км 8/0
[Ac trans Cs]
-21.1 -23.6 80 -33 -33 опасность
обморожения
1012.5 1010.0
00 18.04 Ю 6 20 км {туман} 4/0
[Cs]
-21.8 -24.4 79 -33 -33 опасность
обморожения
1011.7 1009.2
03 18.04 Ю 5 20 км 8/0
[Cs]
-20.5 -23.1 80 -31 -29 опасность
обморожения
1011.4 1009.0 -22.3 29
06 18.04 Ю 6
{10}
20 км 8/0 270 м
[Cs]
-17.4 -20.3 78 -28 -26 1010.7 1008.3
09 18.04 Ю 9-12
{12}
20 км 8/0
[Cs]
-15.0 -18.3 76 -26 -26 1010.2 1007.7
12 18.04 Ю 7-11
{12}
20 км 4/0
[Cs]
-13.5 -16.0 81 -23 -23 1008.9 1006.5
15 18.04 Ю 8-11
{12}
20 км слаб. снег {метель} 10/0
[As op]
-12.7 -14.5 86 -23 -23 1006.6 1004.2 -12.7 0.3
18 18.04 Ю 6
{11}
20 км слаб. снег {метель} 10/0
[As op]
-11.6 -13.2 88 -20 -20 1004.1 1001.7
21 18.04 Ю 4 4000 м слаб. снег {метель} 10/0
[As op]
-10.4 -11.9 89 -17 -17 1002.5 1000.1
00 19.04 СЗ 4 2000 м снег {метель} 10/0
[As op]
-7.8 -9.0 91 -15 -15 1002.3 1000.0
03 19.04 С 3 20 км {снег} 8/0
[Cc]
-9.3 -10.8 89 -15 -13 1002.8 1000.5 -12.7 0.8 38
06 19.04 С 6 20 км {снег} 3/0 270 м
[Ci fib]
-13.5 -15.4 86 -23 -20 1004.8 1002.5
09 19.04 С 7 20 км {метель} 8/0
[Cc]
-12.6 -14.7 84 -22 -21 1007.3 1004.9
12 19.04 С 6 20 км {метель} 4/0
[Cs]
-14.3 -16.5 83 -24 -23 1009.5 1007.1
15 19.04 СЗ 6 20 км 3/0
[Ci fib]
-19.2 -21.4 83 -30 -30 1010.8 1008.3 -9.3
18 19.04 С 4 20 км 3/0
[Ci fib]
-22.4 -25.0 79 -32 -32 опасность
обморожения
1011.5 1009.0
21 19.04 С 3 20 км 4/0
[Ac trans Ci fib]
-23.3 -26.1 78 -32 -32 опасность
обморожения
1012.5 1010.0
00 20.04 С 3 20 км 4/0
[Ac trans Ci fib]
-25.2 -28.2 76 -34 -34 опасность
обморожения
1013.3 1010.8
03 20.04 СЗ 2 20 км 4/0
[Ac trans Ci fib]
-23.3 -26.1 78 -30 -27 1014.2 1011.7 -25.5 38
06 20.04 СЗ 2 20 км 6/0
[Cs]
-19.4 -21.9 80 -25 -20 1014.4 1012.0
09 20.04 З 2 20 км 8/0
[Cs]
-16.7 -19.1 82 -22 -17 1014.0 1011.6
12 20.04 ЮЗ 4 20 км 8/0
[Cs]
-14.9 -16.9 85 -23 -21 1012.8 1010.4
15 20.04 Ю 5 20 км 9/0
[As op]
-13.8 -15.8 85 -22 -22 1010.3 1007.9 -13.8
18 20.04 Ю 6 20 км 9/0
[Ac As]
-13.2 -15.1 86 -22 -22 1007.5 1005.1
21 20.04 Ю 7-10
{12}
4000 м слаб. снег {метель} 10/0
[As op]
-11.0 -12.6 88 -20 -20 1004.3 1002.0
00 21.04 Ю 6
{10}
4000 м слаб. снег {метель} 10/0
[As op]
-7.5 -8.8 90 -16 -16 1002.1 999.8
03 21.04 ЮЗ 4 4000 м слаб. снег 10/10
[As op]
-3.2 -4.4 91 -9 -9 1001.1 998.8 -13.9 0.5 40
06 21.04 ЮЗ 4 20 км в посл. час снег 10/0 240 м
[Ac und]
-1.8 -3.4 89 -8 -6 1000.6 998.4
09 21.04 ЮЗ 3 4000 м слаб. снег 10/0 210 м
[As op]
-0.3 -1.8 90 -5 -4 1000.5 998.2
12 21.04 З 4 20 км {снег} 10/10 210 м
[St]
-0.4 -1.5 92 -6 -6 1000.7 998.4
15 21.04 З 3 20 км 10/10 240 м
[St]
-1.2 -1.8 96 -6 -6 1000.8 998.5 -0.3 0.6
18 21.04 З 3 20 км 10/10 300 м
[St]
-2.1 -2.6 96 -7 -7 1000.3 998.0
21 21.04 ЮЗ 3 н/о н/о -2.4 -2.8 97 -8 -8 998.9 996.6
00 22.04 Ю 4 20 км н/о -2.4 -2.9 96 -9 -9 996.0 993.7
03 22.04 ЮЗ 6
{11}
20 км 9/9 240 м
[]
-1.0 -1.5 96 -8 -8 991.8 989.5 -2.6
06 22.04 З 11-14
{14}
20 км {снег} 10/10 270 м
[St]
+0.1 -0.4 96 -9 -9 987.9 985.7
09 22.04 З 16-21
{21}
20 км 10/10 180 м
[St]
+0.6 -0.1 95 -9 -9 987.8 985.6
12 22.04 З 13-17
{21}
20 км 10/10 240 м
[St]
+0.4 -0.4 94 -9 -9 988.3 986.1
15 22.04 ЮЗ 11-15
{17}
4000 м слаб. снег 10/0 270 м
[As op]
+0.2 -0.4 96 -8 -8 986.6 984.4 +0.6 0.2
18 22.04 З 12-16
{17}
н/о н/о +0.2 -0.5 95 -9 -9 983.6 981.4
21 22.04 СЗ 15-19
{21}
н/о н/о -6.6 -7.7 92 -18 -18 984.4 982.1
00 23.04 СЗ 18-24
{24}
н/о н/о -11.3 -12.7 89 -25 -25 987.9 985.5
03 23.04 СЗ 20-26
{29}
н/о н/о -14.6 -16.3 87 -30 -30 992.9 990.6 -14.6
06 23.04 СЗ 19-25
{27}
2000 м ?/? -14.8 -16.5 87 -30 -30 998.9 996.5 -15.1
09 23.04 СЗ 17-21
{25}
2000 м туман ясно -14.5 -17.0 81 -29 -29 1004.0 1001.6
12 23.04 СЗ 14-18
{21}
20 км {метель} 8/5 600 м
[Cu Sc Ci fib]
-15.0 -18.3 76 -29 -29 1008.2 1005.8
15 23.04 СЗ 6
{18}
20 км {метель} н/о -15.6 -18.4 79 -25 -25 1010.2 1007.8 -14.5
18 23.04 З 7
{14}
20 км 3/0
[Ci fib]
-17.4 -19.7 82 -28 -28 1011.4 1009.0
21 23.04 З 8
{11}
20 км 3/0
[Ci fib]
-18.0 -20.3 82 -30 -30 1011.8 1009.4

 

Местоположение метеостанции Сеяха (Ямало-Ненецкий АО, Россия): широта 70.17 долгота 72.52 высота над уровнем моря 18 м.

В архиве по умолчанию представлена погода в Сеяхе за последнюю неделю. Архивные данные за месяц целиком и за предыдущие месяцы, начиная с января 2011 года, Вы можете получить, выбрав интересующий диапазон дат из раскрывающегося списка и нажав кнопку "Ввод!".


*Определитесь, кто Вы:
робот инопланетянин человек

Внимание! Время в таблицах - всемирное. Для получения местного времени необходимо прибавить поправку, которая равна 5 ч.

Смотрите также архив погоды в соседних городах и на ближайших метеорологических станциях:

Погода в Тамбее (Ямало-Ненецкий АО, Россия) (148 км)
Погода в Антипаюте (Ямало-Ненецкий АО, Россия) (207 км)
Погода в Марресале (Ямало-Ненецкий АО, Россия) (224 км)
Погода в Гыде (Ямало-Ненецкий АО, Россия) (234 км)
Погода в Новом Порте (Ямало-Ненецкий АО, Россия) (277 км)
Погода в Усть-Каре (Ненецкий АО, Россия) (310 км)
Погода в Имени Попова (Ямало-Ненецкий АО, Россия) (362 км)
Погода в Тазовском (Ямало-Ненецкий АО, Россия) (390 км)
Погода в Ныде (Ямало-Ненецкий АО, Россия) (394 км)
Погода в Карауле (Красноярский край, Россия) (402 км)

Пояснения к столбцам:

Ветер - указаны скорость ветра в м/с - средняя за 10 мин, порывы в срок и между сроками (в фигурных скобках) и направление, откуда дует ветер: С - северный, СВ - северо-восточный, В - восточный, ЮВ - юго-восточный, Ю - южный, ЮЗ - юго-западный, З - западный, СЗ - северо-западный.
Видимость - горизонтальная дальность видимости в метрах или километрах. При видимости от 1 до 10 км при отсутствии осадков обычно наблюдается дымка, при ухудшении видимости до 1 км и менее - туман. В сухую погоду видимость может ухудшаться дымом, пылью или мглою.
Явления - указаны атмосферные явления, наблюдавшиеся в срок или в последний час перед сроком; фигурными скобками обозначены явления, наблюдавшиеся между сроками (за 1-3 часа до срока); квадратными скобками обозначены град или гололедные отложения с указанием их диаметра в мм.
Облачность - указаны через наклонную черту общая и нижняя облачность в баллах и высота нижней границы облаков в метрах; квадратными скобками обозначены формы облаков: Ci - перистые, Cs - перисто-слоистые, Cc - перисто-кучевые, Ac - высококучевые, As - высокослоистые, Sc - слоисто-кучевые, Ns - слоисто-дождевые, Cu - кучевые, Cb - кучево-дождевые. Подробнее классификацию облаков см. в Атласе облаков (PDF).
T - Температура воздуха - температура, измеренная на высоте 2 м над землей.
Td - Температура точки росы - температура, при понижении до которой содержащийся в воздухе водяной пар достигнет насыщения.
f - Относительная влажность воздуха - влажноcть воздуха, измеренная на высоте 2 м над землей.
Te - Эффективная температура - температура, которую ощущает одетый по сезону человек в тени. Характеристика душности погоды. При расчете учитывается влияние влажности воздуха и скорости ветра на теплоощущения человека.
Tes - Эффективная температура на солнце - температура, которую ощущает человек, с поправкой на солнечный нагрев. Характеристика знойности погоды. Зависит от высоты солнца над горизонтом, облачности и скорости ветра. Ночью, в пасмурную погоду, а также при ветре 12 м/с и более поправка равна нулю.
P - Атмосферное давление - приведенное к уровню моря атмосферное давление.
Po - Атмосферное давление - измеренное на уровне метеостанции атмосферное давление.
Tmin - Минимальная температура - минимум температуры воздуха на высоте 2 м над землей.
Tmax - Максимальная температура - максимум температуры воздуха на высоте 2 м над землей.
R - Количество осадков - Количество выпавших осадков за период времени, мм. При наведении курсора мыши на число - период времени, за который выпало указанное количество осадков.
R24 - Количество осадков - Количество выпавших осадков за 24 часа, мм.
S - Снежный покров - Высота снежного покрова, см. При наведении курсора мыши на число - состояние снежного покрова и степень покрытия местности в баллах.